Regional Weather Roundup
Issued by NWS

Home | Current Version | Previous Version | Text Only | Print | Product List | Glossary Off
Versions: 1 2 3 4 5 6 7 8 9 10 11 12 13 14 15 16 17 18 19 20 21 22 23 24 25 26 27 28 29 30 31 32 33 34 35 36 37 38 39 40 41 42 43 44 45 46 47 48 49 50

000
ASUS43 KIND 290409
RWRIN

WEATHER ROUNDUP FOR INDIANA
NATIONAL WEATHER SERVICE INDIANAPOLIS IN
1100 PM EST FRI NOV 28 2014

NOTE: "FAIR" INDICATES FEW OR NO CLOUDS BELOW 12,000 FEET WITH NO
SIGNIFICANT WEATHER AND/OR OBSTRUCTIONS TO VISIBILITY.

* - STATION DOES NOT REPORT WEATHER SUCH AS PRECIPITATION OR FOG.

+ - STATION NOT QUALITY CONTROLLED BY THE NATIONAL WEATHER SERVICE.
    USE DATA WITH CAUTION...ESPECIALLY DEWPOINT AND RELATIVE
    HUMIDITY OBSERVATIONS.

INZ001>003-010>013-019-020-290500-
NORTHWEST INDIANA

CITY           SKY/WX    TMP DP  RH WIND       PRES   REMARKS
GARY /AIRPORT/ MOCLDY    35  27  71 S7        29.94F WCI  29
KNOX *+        CLOUDY    32  24  72 S13       29.96S WCI  22
LA PORTE +     CLOUDY    33  26  75 S7        29.97F WCI  27
MICHIGAN CITY+ CLOUDY    32  21  64 S8        29.98S WCI  25
MONTICELLO +   MOCLDY    32  26  77 SE7       29.98F WCI  26
RENSSELAER +   MOCLDY    32  30  93 S10       29.96F WCI  24
VALPARAISO     CLOUDY    31  23  72 SE7       29.95F WCI  24

$$

LMZ046-743>745-290500-
SOUTHERN LAKE MICHIGAN

STATION/POSITION TIME  TEMP WIND        PRES
                       AIR  DIR/SP/G
                 (UTC) (F)  (DEG/KT/KT) (MB)
MICHIGAN CITY    0400   32  140/ 14/ 19   N/A

$$

INZ004-005-014>016-021>024-290500-
NORTH CENTRAL INDIANA

CITY           SKY/WX    TMP DP  RH WIND       PRES   REMARKS
GOSHEN         CLOUDY    31  21  66 S10       30.00S WCI  22
LOGANSPORT +   CLOUDY    32  23  69 S10G17    29.99F WCI  24
PERU/GRISSOM   CLOUDY    31  26  80 S14       29.99F WCI  21
ROCHESTER +    CLOUDY    34  27  75 S12G21    30.00S WCI  25
SOUTH BEND     CLOUDY    32  23  69 SE7       30.01R WCI  26
WARSAW +       CLOUDY    32  21  64 S8        29.99F WCI  25

$$

INZ006>009-017-018-025>027-290500-
NORTHEAST INDIANA

CITY           SKY/WX    TMP DP  RH WIND       PRES   REMARKS
ANGOLA *+      PTCLDY    28  19  69 S7        30.01F WCI  21
AUBURN +       CLOUDY    32  21  64 S5        30.03F WCI  27
FORT WAYNE     CLOUDY    31  21  66 S14       30.02F WCI  21
HUNTINGTON +   CLOUDY    31  21  65 S9        30.01F WCI  23

$$

INZ028-029-035-036-043>045-051>053-290500-
WEST CENTRAL INDIANA

CITY           SKY/WX    TMP DP  RH WIND       PRES   REMARKS
GREENCASTLE +  MOCLDY    32  27  80 SE7       30.00F WCI  26
LAFAYETTE      PTCLDY    31  25  78 SE7       29.98F WCI  24
TERRE HAUTE    PTCLDY    34  25  69 S9        29.99F WCI  27

$$

INZ030>032-037>040-046>048-054>057-064-065-290500-
CENTRAL INDIANA

CITY           SKY/WX    TMP DP  RH WIND       PRES   REMARKS
CP ATTERBURY + CLOUDY    32  23  69 SE5       30.05F WCI  27
FRANKFORT +    PTCLDY    30  26  85 SE9       30.00F WCI  21
INDIANAPOLIS   CLOUDY    32  22  66 SE9       30.01F WCI  24
-EAGLE CREEK   MOCLDY    32  22  66 SE8       30.01F WCI  25
KOKOMO *+      CLOUDY    32  21  64 S15       30.01F WCI  22
MARION +         N/A     31  21  66 S13       30.01F WCI  21
MT COMFORT *+  MOCLDY    32  16  51 SE9       30.03F WCI  24
SHELBYVILLE    CLOUDY    34  23  64 SE9       30.04F WCI  27
ZIONSVILLE +   MOCLDY    31  21  67 SE8       30.02F WCI  24

$$

INZ033-034-041-042-049-050-058-059-290500-
EAST CENTRAL INDIANA

CITY           SKY/WX    TMP DP  RH WIND       PRES   REMARKS
MUNCIE         CLOUDY    32  19  58 S10       30.03F WCI  24

$$

INZ060-061-067>069-081>083-085>088-290500-
SOUTHWEST INDIANA

CITY           SKY/WX    TMP DP  RH WIND       PRES   REMARKS
EVANSVILLE     PTCLDY    38  25  59 S6        30.04F
HUNTINGBURG *+ MOCLDY    37  23  56 S8        30.05F
WASHINGTON +   PTCLDY    35  28  73 S9        30.01F WCI  28

$$

INZ062-063-066-070>080-084-089>092-290500-
SOUTH CENTRAL AND SOUTHEAST INDIANA

CITY           SKY/WX    TMP DP  RH WIND       PRES   REMARKS
BLOOMINGTON    MOCLDY    33  25  72 SE8       30.01F WCI  26

$$



USA.gov is the U.S. government's official web portal to all federal, state and local government web resources and services.